Location: Bennemühlen
(52.5740°N, 9.7135°E)
Time: 02:04:33
(UTC+00:00)

Vanguard 2 Rocket - Pass Details

Date: 24 February 2026
Orbit: 553 x 3287 km, 32.9° (Epoch: 5 March)

Event Time Altitude Azimuth Distance (km) Brightness Sun altitude
Rises 07:04:00 0° 177° (S) 6,763 11.7 5.7°
Reaches altitude 10° 07:12:55 10° 154° (SSE) 6,117 12.1 6.9°
Maximum altitude 07:19:32 13° 133° (SE) 5,989 12.9 7.8°
Drops below altitude 10° 07:26:10 10° 113° (ESE) 6,191 14.3 8.7°
Sets 07:35:09 0° 91° (E) 6,933 12.6 9.9°
